Location: Buckenweiler
(49.0667°N, 10.2500°E)
Time: 15:34:05
(UTC+00:00)

Cosmos 2184 Rocket - Pass Details

Date: 18 January 2026
Orbit: 958 x 1001 km, 82.9° (Epoch: 9 February)

Event Time Altitude Azimuth Distance (km) Brightness Sun altitude
Rises 04:52:00 0° 194° (SSW) 3,648 6.9 -21.4°
Reaches altitude 10° 04:54:30 10° 196° (SSW) 2,700 6.2 -21.0°
Maximum altitude 05:00:40 73° 281° (W) 1,009 3.8 -20.0°
Drops below altitude 10° 05:06:51 10° 6° (N) 2,703 6.3 -19.0°
Sets 05:09:23 0° 9° (N) 3,653 7.0 -18.6°
